Marianna, FL

8:45 PM CST on January 20, 2017 (GMT -0600)
Marianna Municipal

Weather History for KMAI - August, 2013

Change the Weather History Date:

Thursday, August 22, 2013

  Actual Average Record
Temperature  
Mean Temperature 77 °F 81 °F  
Max Temperature 83 °F 91 °F 100 °F (2011)
Min Temperature 71 °F 72 °F 64 °F (1997)
Degree Days  
Heating Degree Days 0    
Month to date heating degree days 0  
Since 1 June heating degree days 0  
Since 1 July heating degree days 0  
Cooling Degree Days 12    
Month to date cooling degree days 374  
Year to date cooling degree days 1724  
Since 1 June cooling degree days 1288  
Growing Degree Days 26 (Base 50)    
Moisture  
Dew Point 73 °F    
Average Humidity 90    
Maximum Humidity 100    
Minimum Humidity 79    
Precipitation  
Precipitation 0.04 in 0.15 in 0.38 in (2002)
Month to date precipitation 13.34 4.21  
Year to date precipitation 49.79 37.11  
Sea Level Pressure  
Sea Level Pressure 30.08 in    
Wind  
Wind Speed 4 mph (ENE)    
Max Wind Speed 10 mph    
Max Gust Speed 16 mph    
Visibility 10 miles    
Events Rain , Thunderstorm    
T = Trace of Precipitation, MM = Missing Value Source: NWS Daily Summary

Daily Weather History Graph

Daily Weather History Graph

Search for Another Location

Airport or City:

Trip Planner

Search our weather history database for the weather conditions in past years. The results will help you decide how hot, cold, wet, or windy it might be!

Date:

Astronomy

Aug. 22, 2013 Rise Set
Actual Time 6:11 AM CDT 7:15 PM CDT
Civil Twilight 5:46 AM CDT 7:40 PM CDT
Nautical Twilight 5:16 AM CDT 8:09 PM CDT
Astronomical Twilight 4:46 AM CDT 8:40 PM CDT
Moon 8:12 PM CDT (8/22) 7:47 AM CDT (8/22)
Length of Visible Light 13h 53m
Length of Day
13h 03m
Waning Gibbous, 96% of the Moon is Illuminated
Aug 22
Waning Gibbous
Aug 28
Last Quarter
Sep 5
New
Sep 12
First Quarter
Sep 19
Full

Hourly Weather History & Observations

Time (CDT) Temp. Heat Index Dew Point Humidity Pressure Visibility Wind Dir Wind Speed Gust Speed Precip Events Conditions
12:53 AM 72.0 °F - 71.1 °F 97% 30.11 in 10.0 mi Calm Calm - N/A   Clear
1:53 AM 72.0 °F - 71.1 °F 97% 30.10 in 10.0 mi NE 3.5 mph - N/A   Scattered Clouds
2:53 AM 72.0 °F - 71.1 °F 97% 30.09 in 10.0 mi NNE 3.5 mph - N/A   Scattered Clouds
3:53 AM 71.1 °F - 70.0 °F 96% 30.10 in 10.0 mi NE 3.5 mph - N/A   Clear
4:53 AM 72.0 °F - 71.1 °F 97% 30.09 in 10.0 mi ENE 5.8 mph - 0.01 in   Clear
5:33 AM 71.6 °F - 71.6 °F 100% 30.10 in 10.0 mi NE 4.6 mph - N/A   Partly Cloudy
5:53 AM 71.1 °F - 71.1 °F 100% 30.09 in 10.0 mi NE 4.6 mph - N/A   Clear
6:21 AM 71.6 °F - 71.6 °F 100% 30.09 in 10.0 mi East 3.5 mph - N/A   Partly Cloudy
6:36 AM 71.6 °F - 71.6 °F 100% 30.10 in 10.0 mi ENE 3.5 mph - N/A   Mostly Cloudy
6:53 AM 72.0 °F - 72.0 °F 100% 30.10 in 10.0 mi ENE 4.6 mph - N/A   Overcast
7:53 AM 73.9 °F - 73.0 °F 97% 30.12 in 5.0 mi ENE 5.8 mph - N/A   Overcast
8:53 AM 75.9 °F - 75.0 °F 97% 30.12 in 10.0 mi ENE 5.8 mph - N/A   Overcast
9:35 AM 78.8 °F - 75.2 °F 89% 30.13 in 10.0 mi East 4.6 mph - N/A   Overcast
9:53 AM 79.0 °F - 75.0 °F 88% 30.14 in 10.0 mi Variable 3.5 mph - N/A   Overcast
10:17 AM 78.8 °F - 75.2 °F 89% 30.14 in 10.0 mi ESE 5.8 mph - N/A   Overcast
10:44 AM 82.4 °F 89.5 °F 75.2 °F 79% 30.13 in 10.0 mi East 8.1 mph - N/A   Overcast
10:53 AM 81.0 °F 86.2 °F 73.9 °F 79% 30.13 in 10.0 mi East 6.9 mph - N/A   Overcast
11:01 AM 82.4 °F 89.5 °F 75.2 °F 79% 30.13 in 10.0 mi ESE 6.9 mph - N/A   Overcast
11:26 AM 82.4 °F 89.5 °F 75.2 °F 79% 30.11 in 10.0 mi Calm Calm - N/A   Scattered Clouds
11:53 AM 82.9 °F 90.2 °F 75.0 °F 77% 30.09 in 10.0 mi Variable 3.5 mph - N/A   Mostly Cloudy
12:16 PM 82.4 °F 89.5 °F 75.2 °F 79% 30.08 in 10.0 mi Calm Calm - N/A   Overcast
12:42 PM 78.8 °F - 73.4 °F 83% 30.08 in 10.0 mi SSE 6.9 mph - N/A Thunderstorm Overcast
12:53 PM 79.0 °F - 75.0 °F 88% 30.08 in 5.0 mi SSE 5.8 mph - 0.02 in Rain , Thunderstorm Rain
1:03 PM 80.6 °F 85.4 °F 73.4 °F 79% 30.08 in 10.0 mi SE 9.2 mph - 0.00 in   Mostly Cloudy
1:10 PM 78.8 °F - 71.6 °F 78% 30.08 in 10.0 mi East 5.8 mph - 0.00 in Rain , Thunderstorm Light Rain
1:32 PM 78.8 °F - 73.4 °F 83% 30.07 in 10.0 mi NE 5.8 mph - 0.00 in   Mostly Cloudy
1:53 PM 77.0 °F - 72.0 °F 84% 30.07 in 10.0 mi NE 5.8 mph - 0.00 in   Partly Cloudy
2:42 PM 78.8 °F - 73.4 °F 83% 30.07 in 10.0 mi East 5.8 mph - 0.00 in Rain Light Rain
2:53 PM 77.0 °F - 73.0 °F 88% 30.07 in 10.0 mi ENE 8.1 mph - 0.00 in Rain Light Rain
3:53 PM 78.1 °F - 73.9 °F 87% 30.03 in 10.0 mi East 5.8 mph - 0.01 in   Partly Cloudy
4:19 PM 78.8 °F - 73.4 °F 83% 30.01 in 10.0 mi East 6.9 mph - N/A   Mostly Cloudy
4:36 PM 78.8 °F - 73.4 °F 83% 30.01 in 10.0 mi East 4.6 mph - N/A   Mostly Cloudy
4:44 PM 78.8 °F - 73.4 °F 83% 30.02 in 10.0 mi ENE 6.9 mph - N/A   Scattered Clouds
4:53 PM 79.0 °F - 73.9 °F 84% 30.01 in 10.0 mi ENE 5.8 mph - N/A   Mostly Cloudy
5:13 PM 78.8 °F - 73.4 °F 83% 30.02 in 10.0 mi ENE 6.9 mph - N/A   Mostly Cloudy
5:32 PM 78.8 °F - 73.4 °F 83% 30.02 in 10.0 mi ENE 8.1 mph - N/A   Mostly Cloudy
5:50 PM 78.8 °F - 73.4 °F 83% 30.02 in 10.0 mi NE 5.8 mph - N/A   Partly Cloudy
5:53 PM 78.1 °F - 73.0 °F 84% 30.01 in 10.0 mi NE 4.6 mph - N/A   Partly Cloudy
6:53 PM 77.0 °F - 73.9 °F 90% 30.02 in 10.0 mi NE 4.6 mph - N/A   Clear
7:53 PM 75.9 °F - 73.0 °F 91% 30.04 in 10.0 mi Calm Calm - N/A   Clear
8:53 PM 75.0 °F - 71.1 °F 87% 30.05 in 10.0 mi Calm Calm - N/A   Clear
9:53 PM 75.0 °F - 71.1 °F 87% 30.06 in 10.0 mi Calm Calm - N/A   Clear
10:53 PM 73.0 °F - 72.0 °F 96% 30.06 in 10.0 mi Calm Calm - N/A   Clear
11:53 PM 73.0 °F - 71.1 °F 93% 30.04 in 10.0 mi Calm Calm - N/A   Clear